STARLINK-4019 (52598 NORAD) Tracking and Keplerian Element Data
This shows tracking and keplerian element data for the satellite.
Feedback or suggestion? Click here.
Element | Value |
Catalog | 52598 |
Name | STARLINK-4019 |
Epoch Orbit | 939 |
Epoch Day | 193.25001157 |
Epoch Year | 2022 |
RAAN | 163.6332 |
Inclination | 53.2128 |
Eccentricity | 0.0002334 |
Argument of Perigee | 58.1932 |
Mean Anonmoly | 27.3639 |
Mean Motion | 15.0884646 |
Decay Rate | 3.728E-05 |
L1 | 1 52598U 22052A 22193.25001157 .00003728 00000+0 25217-3 0 9997 |
L2 | 2 52598 53.2128 163.6332 0002334 58.1932 27.3639 15.08846460 9399 |
Live tracking and technical data element details for STARLINK-4019 (NORAD 52598). STARLINK-4019 can be tracked NOW for your location showing map with azimuth and elevation plus other details from your city location.
Track the satellite on the map from your city or location and see movement details for azimuth, elevation, latitude, longitude, range, height, and movement on the map or in text.
IsCatalogInMostPopularTable: catalog: 52598, numindb: 6
Update: records affected: 1
GetName: 52598 STARLINK-4019
Hit Count: updated at: Sat, 13 Aug 2022 23:47:38 GMT